Powrót do katalogu

STARLINK-34645

AktywnyŁącznośćVLEO
NORAD 64766·PAYLOAD·🇺🇸 United States

Wystrzelony Jul 8, 2025 z Cape Canaveral Space Force Station

Loading…

Następne Przeloty (najbliższe 24 godziny)

TLE

ŚwieżeSource: CelesTrak SupGP

Epoka: Sep 15, 2026, 02:29 UTC

1 64766C 25147M   26258.10395833 -.00009659  00000+0 -28540-3 0  2583
2 64766  53.1589  82.6045 0001267  88.1917  22.5426 15.34392060    12

Śledź STARLINK-34645 w czasie rzeczywistym z AllMySat

Download on the App Store